Location: Unspecified
(0.0000°N, 0.0000°E)
Time: 22:14:07
(UTC+00:00)

deb Explorer IX - All Passes

Search period start: 27 April 2015 00:00
Search period end: 07 May 2015 00:00
Orbit: 548 x 1159 km, 38.8° (Epoch: 27 April)

Date Brightness Start Highest point End Pass type
(mag) Time Alt. Az. Time Alt. Az. Time Alt. Az.
27 Apr - 08:44:05 10° N 08:48:45 19° NE 08:53:20 10° ENE daylight
27 Apr - 10:30:17 10° NW 10:37:16 90° NNE 10:43:10 10° SE daylight
27 Apr - 12:21:40 10° WSW 12:24:59 14° SW 12:27:47 10° S daylight
27 Apr - 21:30:16 10° SSW 21:34:19 31° SE 21:39:02 10° ENE night (unlit)
27 Apr - 23:17:25 10° W 23:21:57 32° NW 23:27:09 10° NNE night (unlit)
28 Apr - 08:30:14 10° NNW 08:35:35 22° NE 08:40:43 10° E daylight
28 Apr - 10:16:56 10° NW 10:24:00 78° SW 10:30:02 10° SE daylight
28 Apr - 12:09:12 10° WSW 12:11:49 12° SW 12:13:56 10° SSW daylight
28 Apr - 21:16:59 10° SSW 21:21:09 38° SE 21:25:57 10° ENE night (unlit)
28 Apr - 23:04:39 10° W 23:08:50 26° NW 23:13:30 10° NNE night (unlit)
29 Apr - 08:16:29 10° NNW 08:22:23 26° NE 08:27:59 10° E daylight
29 Apr - 10:03:36 10° WNW 10:10:43 67° SW 10:16:49 10° SE daylight
29 Apr - 11:57:15 10° SW 11:58:38 10° SW 11:59:34 10° SSW daylight
29 Apr - 21:03:45 10° SSW 21:07:58 46° SE 21:12:49 10° ENE night (unlit)
29 Apr - 22:51:58 10° W 22:55:43 21° NW 22:59:47 10° NNE night (unlit)
30 Apr - 08:02:47 10° NNW 08:09:08 30° NE 08:15:09 10° E daylight
30 Apr - 09:50:17 10° WNW 09:57:24 57° SW 10:03:34 10° SE daylight
30 Apr - 20:50:32 10° SW 20:54:47 58° SE 20:59:38 10° ENE night (unlit)
30 Apr - 22:39:26 10° WNW 22:42:37 17° NW 22:45:56 10° N night (unlit)
01 May - 07:49:08 10° NNW 07:55:52 36° NE 08:02:12 10° ESE daylight
01 May - 09:37:01 10° WNW 09:44:05 49° SW 09:50:15 10° SSE daylight
01 May - 20:37:21 10° SW 20:41:35 73° SE 20:46:24 10° NE night (unlit)
01 May - 22:27:06 10° WNW 22:29:31 13° NNW 22:31:52 10° N night (unlit)
02 May - 07:35:31 10° NNW 07:42:33 41° NE 07:49:11 10° ESE daylight
02 May - 09:23:47 10° WNW 09:30:43 43° SW 09:36:53 10° SSE daylight
02 May - 20:24:12 10° SW 20:28:24 88° NW 20:33:07 10° NE visible
02 May - 22:15:37 10° NW 22:16:25 10° NNW 22:16:58 10° NNW night (unlit)
03 May - 05:39:52 10° NNE 05:40:11 10° NNE 05:41:03 10° NE daylight
03 May - 07:21:57 10° NNW 07:29:12 48° NE 07:36:06 10° ESE daylight
03 May - 09:10:34 10° WNW 09:17:22 37° SW 09:23:28 10° SSE daylight
03 May - 18:27:36 10° SE 18:27:48 10° SE 18:28:14 10° SE visible
03 May - 20:11:05 10° SW 20:15:13 69° NW 20:19:47 10° NE visible
04 May - 05:24:28 10° NNE 05:26:58 12° NE 05:29:56 10° ENE visible
04 May - 07:08:24 10° NW 07:15:50 56° NE 07:22:56 10° ESE daylight
04 May - 08:57:24 10° WNW 09:04:00 33° SW 09:09:59 10° SSE daylight
04 May - 18:12:51 10° SSE 18:14:38 13° SE 18:16:36 10° ESE daylight
04 May - 19:58:00 10° WSW 20:02:02 53° NW 20:06:24 10° NE visible
05 May - 05:10:11 10° N 05:13:43 14° NE 05:17:41 10° ENE visible
05 May - 06:54:54 10° NW 07:02:26 65° NE 07:09:43 10° ESE daylight
05 May - 08:44:17 10° W 08:50:39 29° SW 08:56:26 10° SSE daylight
05 May - 17:58:57 10° S 18:01:28 16° SE 18:04:06 10° ESE daylight
05 May - 19:44:57 10° WSW 19:48:50 41° NW 19:52:59 10° NNE visible
06 May - 04:56:10 10° N 05:00:25 17° NE 05:05:06 10° ENE visible
06 May - 06:41:25 10° NW 06:49:01 74° NE 06:56:26 10° SE daylight
06 May - 08:31:13 10° W 08:37:17 25° SW 08:42:49 10° SSE daylight
06 May - 17:45:15 10° S 17:48:17 20° SE 17:51:22 10° E daylight
06 May - 19:31:56 10° WSW 19:35:39 32° NW 19:39:30 10° NNE visible
